Theta_e
348 349 347 347 348 349 349 349 349 350 351 351 353 354 352 353 353 352 351 354 355 352 344 340 337 337 339 342 346 347 347 347 346 349 354 356 356 354 354 353 349 348 348 349 349 349 348 347 345 342 341 341 335 333 333 328 323 319 318 325 333 336 337 342 343 336 336 342 341 342 344 339 334 334 335 337 340 341 340 342 342 342 342 343 343
347 348 347 346 348 349 350 350 350 351 351 352 353 355 354 353 354 353 351 353 354 348 342 342 340 339 341 343 345 347 347 347 348 350 354 356 356 354 353 350 348 349 350 350 349 349 347 346 344 338 337 338 333 330 327 320 318 319 327 337 339 336 337 339 337 335 341 344 341 341 342 341 338 337 339 339 339 339 339 339 339 339 340 340 340
345 347 347 346 347 348 350 352 351 353 353 353 353 355 355 353 354 354 349 350 351 346 341 344 344 342 344 345 346 349 351 351 352 354 355 356 355 354 353 350 348 349 350 350 349 348 348 346 342 339 337 334 331 328 321 318 322 327 336 342 340 339 340 338 334 331 336 339 338 339 341 342 341 339 340 339 338 338 338 338 337 338 339 337 338
345 346 347 346 346 347 350 352 353 353 354 354 354 355 356 354 353 353 348 345 347 345 340 342 345 345 346 348 349 351 354 354 355 357 357 355 355 354 353 350 349 349 350 350 349 349 348 345 342 341 338 334 330 321 316 324 330 331 338 340 338 342 343 341 337 331 329 332 337 341 341 342 341 340 340 337 337 337 336 337 335 335 336 332 334
345 345 347 348 346 347 350 352 353 354 355 355 354 355 356 354 351 351 348 343 344 344 340 340 344 346 347 351 354 354 354 354 355 357 356 354 354 355 353 351 349 349 349 349 349 349 347 344 342 342 339 332 325 316 321 336 338 336 339 338 337 341 343 341 338 333 329 329 334 338 339 342 342 340 340 338 338 338 336 336 334 332 331 326 328
346 346 347 348 347 347 350 353 354 354 354 354 354 355 356 354 352 351 350 344 342 343 341 340 342 345 347 349 352 354 354 353 352 354 355 354 354 354 353 352 350 349 348 347 349 348 345 343 343 344 342 334 321 318 328 336 337 338 339 337 337 340 339 338 338 335 333 329 332 336 338 340 340 338 340 340 337 338 337 335 333 331 330 326 328
347 348 348 349 348 348 350 353 354 354 355 355 355 355 355 355 353 350 350 348 343 343 342 341 343 344 344 344 346 348 351 352 349 351 354 354 352 351 352 353 352 350 348 347 348 348 345 345 344 343 344 340 324 319 327 333 336 339 340 339 337 336 333 334 338 338 336 334 333 337 339 338 335 333 338 341 338 336 336 335 334 332 331 328 328
348 349 349 349 348 349 350 352 354 354 355 355 355 354 354 355 353 350 350 349 346 345 343 342 343 343 342 342 344 345 348 350 350 350 352 352 351 350 351 353 353 351 349 348 348 347 346 346 342 339 343 342 326 318 328 337 340 339 340 340 336 332 330 333 338 337 337 339 335 336 339 337 334 330 329 335 337 338 337 335 333 332 331 330 328
349 349 349 349 349 350 350 352 354 355 355 355 355 355 354 354 354 352 350 349 348 347 344 343 342 342 341 342 346 348 348 350 351 351 350 351 351 351 352 353 353 352 349 348 347 348 348 345 339 335 338 338 328 325 333 339 340 338 338 337 333 332 332 333 336 335 336 340 338 337 336 335 334 330 326 329 331 335 336 335 334 332 330 330 330
348 349 350 351 350 351 351 352 354 355 355 355 356 356 355 355 355 354 352 349 349 347 345 343 341 341 342 343 346 349 349 351 353 354 352 353 352 351 352 353 353 351 347 347 348 348 348 343 336 330 328 331 329 333 340 338 333 334 336 336 336 336 333 332 334 335 335 335 334 333 333 335 336 334 333 334 332 332 334 335 334 332 331 332 332
349 348 350 352 352 352 352 352 354 356 356 355 356 358 357 357 356 356 354 351 348 346 345 342 340 341 343 344 346 347 348 350 353 354 355 354 353 352 351 350 350 347 344 347 348 347 344 339 336 332 326 325 326 332 342 340 332 332 335 336 339 338 334 332 332 333 332 330 328 327 329 334 337 336 337 337 335 334 335 336 334 332 333 334 332
350 349 350 352 353 353 353 353 353 356 356 355 357 359 360 359 358 358 356 353 350 347 345 342 340 341 343 344 345 345 346 347 349 352 354 354 352 352 349 347 347 346 345 348 347 344 342 336 336 337 329 324 325 325 333 337 337 338 337 335 336 335 335 333 331 332 333 331 331 331 331 333 334 334 335 336 335 333 333 334 333 333 335 334 333
349 349 350 352 353 353 353 353 353 356 356 356 357 359 361 360 360 359 357 355 351 346 344 344 342 342 343 345 345 345 345 346 345 349 352 352 349 348 348 346 344 344 346 347 345 343 343 336 330 332 327 324 328 326 322 328 336 342 340 334 333 335 335 333 332 334 335 334 336 337 336 335 336 334 332 333 335 334 332 331 330 333 334 333 333
348 350 350 351 352 353 353 352 353 354 356 356 356 358 360 361 360 360 358 356 350 345 345 346 344 342 343 344 344 344 345 345 345 347 350 350 344 344 346 345 343 343 342 342 341 344 345 338 326 324 322 321 326 326 322 323 329 338 339 333 333 337 335 332 332 335 336 335 334 335 335 335 336 336 334 332 333 335 335 334 333 333 331 330 332
346 349 351 351 351 353 353 352 352 353 355 356 356 356 359 360 361 360 359 357 350 345 345 345 343 343 343 343 343 343 344 345 344 344 347 347 343 343 345 344 342 342 341 339 340 345 347 340 328 320 317 318 321 322 322 320 320 330 336 331 332 336 334 331 332 335 337 337 334 332 333 335 336 336 335 334 333 333 334 334 333 332 330 331 333
346 349 351 351 351 353 354 352 352 352 354 355 355 355 357 359 360 361 360 358 350 344 345 343 343 345 345 343 343 343 343 344 343 342 345 345 343 343 345 345 344 343 344 342 340 343 346 343 331 320 315 316 318 318 318 319 318 322 328 328 330 336 336 332 331 333 336 339 338 336 334 333 336 337 335 336 335 333 332 332 331 331 332 333 333
345 348 350 350 348 351 354 353 352 352 353 354 355 355 356 357 359 360 360 359 350 342 344 344 343 346 346 344 344 343 343 343 342 341 343 344 343 344 345 345 345 347 348 347 343 341 342 340 331 320 315 315 316 317 317 319 322 322 324 325 326 334 338 334 330 329 333 337 339 339 336 332 332 334 333 333 333 332 331 332 331 332 333 333 333
346 348 349 349 349 351 355 354 352 353 353 354 354 355 356 356 358 359 360 361 352 341 343 344 344 346 347 346 345 344 343 342 342 341 342 343 343 345 346 345 346 348 350 349 346 341 336 334 328 318 315 315 315 318 317 319 323 325 324 325 324 329 337 337 332 327 328 335 338 338 339 336 332 332 331 331 331 331 331 332 332 332 332 332 332
346 348 349 349 350 353 357 354 352 353 353 354 355 355 355 356 357 359 359 359 353 344 342 344 344 345 347 348 346 345 343 342 342 342 341 342 342 344 346 346 345 346 348 349 346 341 333 330 326 319 316 317 316 317 317 318 321 324 325 325 322 324 332 335 332 325 325 333 338 338 338 337 334 332 331 331 331 331 331 332 334 334 334 333 332
346 347 349 350 352 354 356 354 352 352 354 356 357 356 357 356 357 360 361 361 357 349 343 343 344 345 347 348 347 346 345 344 343 343 342 341 341 343 345 345 345 345 348 348 345 341 334 328 324 319 317 318 318 317 317 318 320 323 325 325 322 322 324 326 325 323 327 334 337 338 337 334 330 328 329 330 330 330 329 330 334 336 336 336 335
345 346 347 349 352 355 356 355 353 352 354 357 359 358 358 357 358 361 363 364 361 354 345 343 345 346 347 348 348 347 346 345 345 344 344 343 342 343 344 345 346 346 347 348 344 340 336 328 322 319 317 318 318 317 318 319 319 320 323 325 328 327 322 320 320 322 330 337 338 338 336 330 325 326 329 331 330 329 329 329 332 334 334 334 334
345 347 347 349 353 355 356 356 354 353 355 357 359 358 357 358 359 361 365 366 363 355 347 345 346 347 347 347 347 347 346 346 347 346 346 346 345 343 344 346 348 348 348 347 343 339 337 331 323 319 318 318 319 319 318 318 319 319 320 322 328 333 329 323 321 322 328 335 337 336 332 326 323 324 326 327 326 328 331 333 333 333 333 332 331
344 345 347 349 351 353 356 357 355 355 356 356 358 359 358 358 359 361 366 366 362 354 348 346 347 347 346 347 348 347 345 346 347 347 347 348 347 346 344 346 348 350 350 348 344 340 336 331 325 321 320 319 318 319 319 320 318 318 320 319 322 331 331 325 321 321 324 331 335 335 330 325 324 324 324 325 325 325 329 332 333 332 332 331 331
343 343 345 345 345 348 354 357 356 355 356 357 359 360 360 360 360 362 365 363 359 357 353 347 345 346 346 346 348 347 346 347 346 346 347 347 347 346 345 346 348 351 351 349 345 341 337 332 327 322 321 319 317 318 320 321 319 317 320 320 320 323 325 321 318 318 323 331 335 335 332 330 330 327 325 325 325 324 325 328 329 328 328 329 330
344 344 346 346 345 348 354 357 357 356 356 357 360 362 362 361 360 362 364 362 359 360 360 350 344 346 346 345 346 347 347 346 345 346 346 346 346 347 346 346 348 351 352 349 346 343 340 335 328 322 319 318 317 318 319 320 319 318 318 320 320 320 320 319 318 320 327 335 338 337 337 336 335 332 327 324 324 324 325 328 329 329 329 329 330
348 349 350 349 349 350 354 357 357 356 356 357 360 362 363 362 360 360 363 362 360 362 363 356 347 344 345 345 345 347 347 346 346 347 347 348 349 351 351 349 347 350 352 349 346 344 343 338 329 321 319 319 317 317 318 318 318 318 319 319 320 320 320 319 319 320 328 335 338 338 337 335 334 333 328 324 323 324 327 330 332 332 332 332 333
351 352 351 350 350 351 355 357 358 358 356 357 360 361 362 361 360 359 359 360 359 359 361 360 354 348 345 345 344 344 346 347 347 348 350 352 353 354 356 355 351 351 352 352 349 345 343 340 333 324 320 318 317 316 317 318 318 318 319 319 320 320 320 320 320 319 324 332 336 335 333 332 332 332 330 327 326 327 328 330 332 333 334 334 335
355 355 354 352 350 352 355 356 357 359 358 357 358 360 360 359 358 357 357 358 359 358 358 361 360 355 349 345 343 343 345 346 347 347 350 354 356 356 358 358 356 354 353 354 353 348 343 341 337 328 321 317 316 316 316 317 318 318 318 319 320 320 319 319 320 318 322 332 337 336 335 335 335 334 332 331 330 330 330 330 331 332 334 336 336
358 355 353 351 350 353 356 356 357 359 359 359 358 358 359 358 356 355 354 356 357 356 357 358 360 360 355 347 344 344 344 346 348 350 351 354 356 357 358 359 359 356 354 354 355 351 345 342 339 332 324 318 315 316 316 317 318 317 318 319 319 319 320 319 322 325 329 335 338 339 338 338 336 335 334 333 333 333 332 330 330 330 332 335 336
360 357 354 350 348 350 354 357 358 358 359 360 359 359 359 358 356 354 353 354 355 356 357 357 358 360 358 353 348 346 346 347 350 352 352 353 356 357 358 358 359 357 355 354 354 352 348 343 341 336 327 320 316 316 316 317 318 317 318 319 319 319 319 319 324 330 334 337 339 338 338 337 336 336 335 334 333 333 332 331 329 329 329 331 334
350 353 355 349 345 345 350 356 358 358 359 359 359 360 360 359 358 356 353 353 354 356 356 356 358 359 360 359 354 350 350 351 351 353 355 355 356 357 357 357 357 358 357 355 354 353 349 345 343 339 330 322 318 317 317 318 318 317 318 319 319 319 319 320 326 331 332 334 337 337 337 338 337 336 335 334 334 333 332 332 331 330 329 329 330
341 348 354 352 345 341 344 351 354 357 359 359 360 361 361 361 361 358 356 353 353 357 357 356 358 360 361 361 358 357 356 355 356 358 358 357 357 357 357 357 357 357 357 357 355 353 350 347 345 341 333 325 320 317 318 319 318 317 318 319 319 320 320 320 325 329 330 332 336 337 337 338 337 336 335 335 334 334 334 333 332 332 331 330 329
345 352 354 352 350 347 344 346 349 352 355 357 358 360 361 362 361 360 358 355 354 355 356 357 359 362 364 363 362 362 361 360 360 359 359 359 359 358 357 356 357 358 357 357 355 352 350 347 344 342 337 328 321 318 318 319 318 318 318 318 319 320 321 322 325 329 329 331 335 338 337 337 337 336 335 333 333 334 334 334 333 333 333 332 331
342 348 351 353 355 354 350 349 349 348 350 354 358 361 362 362 362 362 360 357 357 358 358 359 360 363 365 365 365 365 365 363 361 360 359 360 359 358 357 357 357 358 358 358 355 351 349 346 344 342 339 332 325 321 319 320 319 318 317 318 319 320 322 323 325 328 329 330 334 338 338 338 337 336 335 334 334 335 335 335 334 334 334 333 333
336 340 348 355 359 358 356 354 351 351 355 358 359 362 362 362 362 363 362 359 358 360 361 360 362 365 365 366 367 367 366 364 362 360 359 359 358 357 356 356 358 358 358 357 355 351 347 344 343 342 340 336 331 327 323 320 318 318 317 317 319 320 322 323 323 325 328 328 329 334 337 337 336 336 336 336 336 336 336 336 336 335 334 334 333
335 335 342 350 353 356 358 356 354 357 361 360 359 362 364 363 362 363 363 360 359 363 364 362 363 366 367 368 368 366 364 363 361 360 360 360 358 356 355 357 358 359 358 357 355 352 347 343 342 342 341 339 336 333 327 321 318 319 318 318 318 319 320 322 323 325 324 322 324 331 335 336 336 336 336 337 337 337 337 337 336 336 335 334 333
335 333 335 339 340 345 353 357 358 360 361 361 361 364 366 364 363 364 363 361 362 364 365 364 367 369 369 368 367 365 363 362 360 360 361 359 357 356 357 358 358 358 358 357 355 353 349 346 344 342 342 341 339 337 331 323 319 320 320 320 319 319 319 321 325 326 322 321 327 333 335 336 337 337 337 336 335 335 335 335 335 335 335 333 332
333 332 333 335 335 341 352 357 357 359 360 361 363 366 367 365 365 365 364 363 365 366 367 369 370 370 369 368 366 364 361 359 358 359 359 356 355 356 358 358 358 359 358 356 355 353 350 349 346 344 343 342 340 338 332 324 321 323 323 322 323 324 324 324 326 326 323 323 327 330 332 332 332 334 335 334 332 330 329 331 332 332 331 331 330
332 331 332 335 336 344 354 357 357 357 360 362 365 368 367 366 366 367 365 365 367 369 370 371 370 369 368 366 363 362 359 355 355 356 355 353 353 355 357 358 357 358 357 356 355 353 351 349 348 346 345 343 341 339 331 325 325 325 323 325 329 331 329 327 328 327 323 323 325 327 328 327 323 326 334 335 332 329 328 329 331 330 329 329 328
332 334 342 347 349 353 358 359 356 354 358 362 367 369 368 366 367 367 365 366 369 370 370 369 368 367 364 358 355 355 354 352 352 353 353 353 353 354 356 357 356 356 357 356 355 353 351 350 349 347 345 344 342 337 331 328 327 324 325 331 335 333 329 327 327 325 322 323 325 324 324 323 320 327 335 334 331 330 331 331 330 330 328 328 327
333 340 354 361 360 360 359 357 353 352 359 366 368 369 368 367 367 368 367 368 369 369 367 366 365 363 358 353 352 351 349 349 351 353 354 353 353 353 355 357 356 356 356 355 354 353 351 349 347 345 343 342 340 336 333 331 325 323 330 336 335 330 327 324 323 324 326 326 325 322 322 324 328 333 334 331 328 330 331 330 329 329 329 328 328
336 341 353 361 362 360 356 355 355 356 362 368 368 368 368 367 368 369 369 369 368 367 364 364 363 360 357 355 352 349 348 351 353 354 353 353 353 354 355 356 356 356 355 354 354 353 350 348 345 342 340 340 339 338 336 331 325 325 333 337 333 328 326 324 322 325 327 326 323 322 324 329 335 336 333 329 328 328 328 328 328 329 329 328 328
352 355 357 360 360 359 357 358 359 361 366 368 368 368 367 368 368 369 370 370 369 366 363 361 359 355 352 349 346 344 346 349 351 352 352 353 354 354 354 355 355 354 353 352 351 350 348 347 345 342 339 337 336 336 334 329 328 332 336 336 331 326 324 324 323 323 323 324 324 325 326 329 332 333 330 328 326 326 326 327 328 328 328 328 328
361 363 363 363 361 359 360 362 363 365 367 367 367 367 367 367 369 370 370 369 365 361 358 356 353 346 341 341 344 344 343 345 348 349 350 352 353 353 354 354 354 354 352 351 349 348 346 345 343 341 338 336 335 335 334 333 334 335 334 331 327 325 324 323 323 324 324 325 325 324 324 325 328 328 328 327 325 325 326 326 326 327 327 328 328
363 366 365 365 364 362 363 365 366 367 367 367 367 367 367 368 368 368 367 363 356 351 349 347 344 342 340 344 346 345 345 347 349 349 349 351 352 354 353 352 352 352 351 349 349 347 345 344 342 339 337 337 337 336 335 336 335 333 331 328 326 325 324 322 325 328 329 325 323 323 324 327 330 330 328 326 324 324 324 324 325 326 326 327 327
360 363 363 365 366 366 366 367 367 367 367 368 367 366 368 368 366 363 358 351 343 340 340 341 343 344 345 346 347 347 348 350 351 350 350 351 351 352 352 351 351 350 349 348 348 347 346 344 341 338 337 337 337 335 334 334 334 332 330 328 326 325 324 325 329 331 328 323 322 323 326 328 330 328 325 323 321 321 322 323 324 324 325 325 326
356 358 361 363 365 367 367 367 368 368 368 367 366 365 363 360 357 352 344 338 335 335 338 343 346 347 347 348 348 348 350 352 352 351 350 351 351 350 349 350 350 348 348 348 347 347 346 343 341 339 337 336 336 335 334 334 332 330 327 325 325 324 323 325 328 327 324 322 323 324 326 327 326 324 322 321 320 321 322 323 323 324 324 324 324
358 359 360 361 363 364 365 366 367 367 366 363 362 361 356 353 354 352 344 338 338 340 342 345 346 346 347 349 350 351 351 351 351 350 350 350 350 349 348 348 348 347 348 347 347 347 346 343 341 339 338 336 335 335 334 331 328 328 327 326 326 325 324 325 325 322 322 323 323 324 325 325 324 324 324 323 323 324 325 325 325 324 323 323 322
360 360 358 359 360 360 361 363 363 363 363 362 361 361 359 358 359 355 348 343 343 344 343 345 347 349 351 352 352 352 351 350 349 348 348 347 347 348 348 347 347 347 347 347 346 345 344 342 341 340 337 336 336 334 331 329 329 331 331 329 328 326 325 323 322 321 325 328 328 328 328 328 327 327 327 326 326 326 326 326 325 324 323 323 323
356 354 353 356 357 355 356 357 357 357 358 357 357 358 357 354 352 348 343 340 341 343 344 346 349 351 351 351 351 351 350 349 348 347 347 347 347 347 346 347 347 346 346 345 344 342 341 340 340 339 337 336 335 334 333 332 333 334 332 329 328 326 324 324 323 325 328 330 330 330 330 329 328 327 327 327 327 327 326 326 325 324 323 322 322
354 351 352 355 355 354 354 353 352 350 349 350 353 353 350 344 341 341 340 339 340 344 347 350 350 349 349 349 349 348 348 348 347 346 346 345 346 346 345 346 345 344 344 344 342 339 338 338 338 338 337 335 334 335 335 334 333 332 330 329 329 329 328 327 327 326 326 326 326 326 327 327 326 327 327 327 327 326 326 326 325 323 322 321 321
Wind_Speed
26 26 26 26 26 26 26 26 27 28 27 27 27 27 29 28 27 28 26 24 24 24 22 22 23 22 21 19 18 17 15 15 14 14 12 12 13 13 13 12 9 7 5 4 5 4 5 6 5 3 2 4 5 4 6 8 8 8 4 2 1 1 4 4 5 4 4 5 6 4 3 6 6 4 5 7 5 3 5 5 5 5 6 5 4
25 27 27 27 27 27 27 27 28 29 29 30 30 28 29 30 28 29 29 27 26 25 23 22 23 22 21 20 18 17 15 15 14 13 13 13 13 14 13 11 9 7 6 5 6 6 6 6 5 4 3 5 6 6 9 8 6 3 2 1 2 3 3 0 5 3 3 5 2 1 3 5 6 5 5 4 2 2 5 6 6 5 4 4 4
25 28 29 29 29 29 29 29 29 30 30 30 31 30 30 31 29 30 30 30 28 26 24 24 23 22 21 20 18 17 14 13 13 12 12 13 13 13 12 11 9 7 6 6 7 7 6 5 5 4 4 6 6 6 9 6 2 2 3 1 1 1 3 2 2 3 3 4 3 3 4 4 3 6 6 4 2 2 2 2 3 3 4 3 2
26 27 30 30 30 31 31 31 30 30 31 31 32 31 31 32 32 31 31 30 29 27 26 25 23 22 21 19 17 16 14 12 12 12 13 13 12 12 12 10 9 8 7 7 7 7 6 5 5 5 5 6 6 7 6 3 2 2 2 1 4 1 1 1 3 4 4 2 2 4 3 2 2 5 6 5 3 2 2 2 2 1 5 4 0
27 27 30 32 31 32 34 34 32 32 33 33 34 34 34 34 34 32 31 30 29 29 27 25 24 23 21 19 17 16 15 15 15 14 14 14 13 13 12 10 9 9 8 8 8 8 7 6 6 6 6 6 6 6 2 2 1 1 1 1 4 2 1 1 4 5 4 3 1 2 1 3 1 2 3 4 3 4 3 1 2 3 6 5 1
27 28 29 32 32 33 35 35 34 33 35 35 35 35 35 34 34 33 32 30 30 30 28 27 26 25 24 22 21 19 18 18 18 16 14 14 14 13 12 11 10 9 9 9 8 8 8 7 7 5 5 6 5 4 4 5 4 3 2 3 3 5 4 4 2 5 5 4 3 4 3 2 1 1 3 2 2 4 4 1 3 5 9 5 4
27 28 28 30 32 33 34 36 36 34 34 35 35 35 35 34 34 34 33 32 31 30 30 28 27 26 26 24 23 21 19 19 18 16 15 14 13 12 13 14 12 10 10 10 9 8 7 7 7 5 5 7 6 4 5 5 4 5 3 5 5 6 6 5 2 3 6 4 2 3 2 2 1 0 2 3 2 2 4 1 2 3 8 6 6
27 29 30 30 33 34 35 36 37 34 33 35 35 36 36 35 35 35 34 33 31 31 31 30 29 28 27 25 22 22 21 19 17 17 17 14 11 10 13 16 14 11 10 10 9 8 6 6 7 6 8 8 6 4 7 7 5 7 7 7 6 6 7 7 6 2 2 3 0 3 3 2 1 1 0 3 2 1 3 2 2 3 4 5 5
28 30 31 31 32 35 36 36 37 34 33 34 36 36 37 37 35 35 35 34 32 31 31 31 30 29 28 26 24 23 21 20 18 17 17 15 14 14 15 16 14 12 11 10 8 7 8 8 8 8 9 9 6 4 5 6 8 9 8 7 5 5 6 7 6 5 3 2 1 2 2 0 2 2 1 0 0 1 3 3 3 4 2 3 1
26 27 30 31 31 33 34 35 36 35 34 34 35 35 36 36 36 36 36 35 33 32 32 31 31 30 29 28 27 25 22 21 19 18 17 18 19 18 17 16 15 13 11 11 9 10 12 12 10 10 9 9 7 7 4 7 8 7 6 5 4 5 5 6 6 5 6 5 4 5 2 2 1 2 2 2 1 1 1 3 5 3 3 4 4
27 26 28 30 30 29 32 34 36 36 35 35 35 34 35 36 37 37 36 36 35 33 33 32 31 30 29 29 29 27 24 23 21 18 18 19 20 20 20 20 18 15 12 12 13 13 14 13 11 10 8 8 8 10 9 8 5 4 4 5 7 6 5 6 7 6 8 7 4 4 3 2 3 3 1 2 2 1 3 6 6 3 2 3 3
27 26 26 29 31 30 32 35 37 37 37 36 36 35 35 36 37 37 37 36 35 34 34 33 32 31 29 30 29 28 26 25 24 21 20 21 20 20 20 20 19 17 13 13 13 12 13 13 12 11 9 8 9 10 12 9 5 4 5 6 8 7 6 6 6 5 5 4 3 1 1 0 3 5 5 2 3 5 6 9 7 5 3 4 4
26 27 26 28 32 34 35 36 39 40 40 38 37 36 36 36 37 37 37 37 36 35 34 34 34 32 31 31 30 29 28 27 25 24 23 23 21 20 21 20 20 18 16 16 14 12 15 14 11 12 10 9 9 8 9 10 10 7 8 9 8 8 7 7 6 6 5 4 5 3 5 4 3 6 8 5 4 6 7 6 6 6 7 6 6
28 30 30 31 34 37 37 38 41 43 42 40 38 37 37 37 37 37 37 37 36 35 35 35 34 33 33 33 31 30 29 28 27 25 25 24 23 21 21 21 20 19 18 19 16 15 18 16 11 12 11 9 11 9 8 10 14 14 12 11 9 8 9 9 7 7 7 7 8 8 8 7 6 7 8 7 7 7 5 5 7 9 10 8 7
28 31 35 35 36 37 38 40 42 44 44 42 40 39 38 38 38 38 38 37 37 37 36 35 34 33 33 33 32 31 30 29 28 26 25 25 24 23 23 22 21 20 20 19 18 19 20 17 12 12 11 10 11 11 10 10 13 16 15 12 10 9 8 9 8 7 8 9 8 9 9 8 8 8 6 5 7 8 8 8 9 10 9 8 8
29 32 36 37 37 37 39 40 42 45 45 43 42 42 41 40 39 39 39 38 38 38 37 36 35 34 34 33 32 31 31 30 29 28 27 26 26 25 24 23 21 20 19 18 19 20 21 19 14 11 11 11 11 11 11 11 11 15 16 13 11 10 8 8 9 8 9 9 9 9 9 9 8 8 7 8 9 10 9 9 9 8 8 8 8
34 34 36 38 38 38 40 41 42 45 47 46 45 45 44 43 41 40 39 39 39 40 39 38 36 36 35 34 33 32 31 31 30 29 29 28 27 26 25 23 21 20 19 18 19 20 21 21 17 12 11 12 11 11 11 12 11 12 14 13 12 12 10 10 9 9 9 9 10 10 10 10 9 10 11 11 11 11 9 8 8 8 8 10 10
35 36 37 38 38 39 42 42 42 44 47 48 47 46 45 44 42 42 41 40 40 40 41 40 39 38 37 35 34 33 32 31 30 30 30 29 29 28 26 25 23 22 22 22 22 20 20 21 18 14 13 12 12 11 11 12 12 12 12 12 11 13 13 12 11 11 10 10 10 10 11 11 10 10 10 10 10 10 9 9 9 9 10 11 12
32 33 34 36 37 38 41 42 41 43 46 47 47 47 46 44 43 42 42 41 40 41 42 41 40 40 38 37 35 34 32 31 31 30 30 30 30 30 28 27 25 25 25 25 24 22 21 21 19 16 15 14 13 13 12 12 13 14 13 11 10 12 14 14 12 11 11 11 11 12 12 12 11 11 10 10 10 10 10 9 9 10 11 12 12
31 31 31 34 36 36 39 41 41 42 44 45 45 45 45 44 43 42 41 41 41 41 42 42 42 41 39 38 37 36 34 33 32 31 31 32 31 31 30 28 27 27 27 27 26 24 22 21 20 18 17 17 16 14 13 13 14 15 15 13 11 12 14 15 14 12 9 9 11 12 13 12 12 11 11 11 11 11 12 11 11 11 11 12 13
32 32 31 32 34 35 36 37 38 39 41 43 43 43 43 43 43 42 42 42 42 42 43 44 43 42 40 40 39 38 37 36 34 33 33 33 32 32 31 30 29 29 29 30 28 26 24 22 21 20 19 19 18 16 14 14 14 15 16 15 14 13 13 13 14 13 10 10 12 14 14 12 11 11 11 11 12 12 13 13 13 13 14 14 14
34 31 28 27 29 32 33 35 38 39 41 42 42 43 44 43 43 43 42 43 44 44 44 44 44 43 42 41 41 40 39 38 37 35 35 34 33 33 32 31 30 30 31 32 29 26 25 24 22 21 21 20 19 18 16 15 15 15 16 17 17 16 14 13 13 13 13 14 15 15 14 12 11 12 12 13 13 12 13 14 14 15 16 16 15
36 29 25 25 27 29 32 36 40 41 42 43 43 43 44 44 44 44 44 44 45 45 43 43 43 43 43 42 42 41 40 39 39 38 37 36 35 34 33 32 32 32 33 33 30 26 25 25 24 23 22 22 20 20 18 16 15 16 17 17 18 19 18 14 12 12 14 15 15 16 14 12 11 12 13 13 13 13 13 15 16 16 17 17 16
34 30 28 29 30 32 35 39 42 43 42 43 44 43 43 43 43 43 44 45 46 44 43 43 43 44 44 43 43 42 41 40 40 39 38 38 37 36 34 34 33 33 34 34 31 28 27 27 26 25 24 23 23 22 20 18 16 16 16 17 18 20 20 17 13 13 14 14 15 16 15 13 12 13 13 13 14 14 14 16 17 17 17 18 18
32 32 34 34 33 35 39 41 44 45 43 43 44 42 41 43 43 43 43 45 45 43 42 43 43 44 44 44 43 43 42 42 41 40 40 39 38 38 37 36 35 35 35 35 32 30 31 30 28 27 26 25 26 25 22 19 18 17 17 17 19 20 20 18 15 14 14 15 15 16 15 14 14 15 14 13 14 14 15 16 17 17 17 18 18
31 31 34 35 34 36 39 41 43 45 44 44 44 43 41 41 43 41 41 43 43 41 41 43 44 44 44 44 44 44 43 43 42 41 40 39 38 37 37 37 38 37 37 37 35 34 34 33 30 29 29 27 27 26 23 20 20 19 18 19 20 20 20 18 16 15 16 17 17 18 18 17 17 17 16 15 15 15 17 17 18 18 18 18 18
32 31 32 32 32 35 38 40 42 44 45 45 44 44 42 41 42 41 40 42 42 41 41 42 43 44 45 45 45 45 44 43 42 41 40 39 38 36 36 37 37 37 38 39 38 38 37 36 32 31 30 28 27 27 25 23 22 20 20 20 21 21 20 18 17 16 17 18 18 19 18 17 16 16 17 17 16 16 17 18 19 19 19 19 19
31 29 30 31 31 32 35 39 41 41 44 44 44 45 44 42 43 42 40 40 41 42 42 42 43 43 44 45 45 44 44 43 43 42 41 38 37 36 36 35 35 36 36 34 35 39 40 37 35 33 31 28 28 28 27 26 24 22 21 22 22 22 21 20 19 18 18 18 18 17 17 16 16 16 17 18 18 17 17 18 20 20 19 20 21
28 28 30 32 31 30 31 35 38 39 41 43 43 44 44 43 43 43 42 40 40 42 43 43 43 43 43 44 44 43 44 43 42 42 41 40 38 36 36 36 35 35 32 29 31 38 41 39 37 35 32 30 29 30 30 28 27 25 24 23 23 23 22 21 20 18 18 17 17 17 16 17 17 16 17 19 20 20 20 20 21 21 21 21 22
22 25 29 29 29 30 30 32 36 38 39 41 42 43 45 45 44 44 43 41 40 43 44 44 45 43 42 42 43 43 43 43 42 42 41 41 39 37 36 36 36 35 33 31 33 38 40 40 39 36 34 32 32 32 32 30 27 26 25 25 24 23 22 22 21 20 19 18 17 16 16 17 17 17 18 21 22 23 24 24 23 22 23 23 24
19 20 25 27 27 30 31 32 35 37 39 41 42 43 44 43 42 43 45 43 42 43 45 45 45 43 42 41 41 42 42 42 43 42 40 40 39 38 36 36 37 37 35 35 37 38 39 39 39 38 36 35 34 35 34 31 28 27 27 26 24 22 23 22 22 21 20 19 17 17 17 18 18 18 19 20 21 22 23 23 23 21 22 24 26
28 28 30 30 29 30 33 34 36 37 39 41 42 42 42 42 42 42 44 43 42 44 45 45 45 43 41 41 40 41 41 41 41 40 39 39 38 38 37 36 38 38 37 37 38 39 38 37 37 38 37 37 36 36 35 32 28 27 27 26 23 22 23 23 23 22 21 18 17 17 17 18 18 18 18 18 20 22 23 23 23 22 21 22 25
27 32 32 31 30 31 33 34 35 36 37 40 43 43 44 44 42 41 42 42 42 44 45 45 44 42 40 40 40 40 40 39 39 38 37 37 37 37 36 36 36 36 36 36 37 38 37 36 35 36 37 36 36 36 35 30 26 26 27 25 23 23 24 24 23 21 19 18 16 16 17 18 18 18 18 18 20 22 23 24 25 24 23 22 24
22 26 31 31 31 31 31 32 32 31 33 36 40 42 43 43 40 39 41 42 41 42 44 44 43 41 40 40 40 39 38 37 37 36 34 33 35 35 34 34 35 35 35 35 36 37 36 35 35 34 34 35 36 37 34 28 25 26 26 24 24 24 24 23 21 20 19 18 16 16 17 19 19 19 19 19 20 21 22 23 24 24 23 24 25
21 21 25 29 29 30 31 31 29 28 30 34 38 39 41 42 40 39 41 42 40 40 42 43 42 41 41 41 39 38 36 35 34 32 30 29 30 31 31 32 33 34 35 35 35 36 35 35 34 33 33 34 35 35 32 28 26 26 24 23 23 23 23 22 22 22 21 19 17 17 19 22 22 21 20 20 21 21 21 23 25 25 24 25 26
27 27 25 25 26 28 30 30 28 29 31 32 35 37 38 40 41 40 41 41 39 39 40 42 42 41 41 41 40 37 35 32 31 29 27 25 26 26 26 29 32 32 32 33 32 33 35 35 34 33 32 32 34 34 30 25 24 23 22 22 22 22 22 22 22 24 22 19 17 18 21 24 23 21 19 19 20 20 20 23 25 26 25 26 27
32 33 32 29 28 29 31 31 29 30 32 32 33 35 37 39 40 40 40 41 40 39 40 40 39 39 39 39 38 36 33 29 27 25 24 24 25 24 23 27 30 31 31 30 29 29 32 35 35 33 32 31 32 33 29 24 23 22 20 20 21 22 22 21 23 24 21 16 16 18 21 23 22 21 20 20 20 20 20 22 24 25 26 26 26
35 35 37 36 34 34 34 33 31 31 32 32 33 35 37 39 40 40 40 40 39 38 38 37 35 32 31 31 32 32 30 26 23 23 22 21 21 23 24 26 29 30 30 29 28 26 29 32 33 33 32 31 31 32 29 25 25 25 21 18 18 19 19 18 19 20 18 15 15 16 18 19 19 19 21 21 20 20 21 23 23 23 24 23 22
37 37 39 41 39 37 36 33 32 32 32 33 35 36 38 40 40 39 39 39 38 36 35 34 31 28 26 27 27 28 28 24 21 22 21 18 18 20 21 23 26 28 28 27 27 27 28 30 30 29 29 29 30 30 27 25 26 24 20 18 18 17 16 14 13 15 17 16 13 13 16 17 16 17 21 23 22 21 22 23 23 22 22 22 21
34 32 30 34 38 37 36 34 31 31 33 34 36 36 37 39 39 38 39 38 37 35 32 31 29 27 25 25 23 25 25 23 21 21 19 16 16 16 17 19 22 24 26 27 27 27 28 29 28 26 26 27 27 28 28 28 28 23 19 18 19 17 15 14 15 16 16 14 12 12 16 18 18 19 22 24 24 23 23 22 22 22 22 22 22
31 30 23 27 33 32 31 30 29 31 34 36 36 36 37 38 38 37 38 37 36 34 31 29 28 26 25 23 21 21 21 20 20 19 17 16 15 14 15 18 20 22 24 26 27 26 26 27 25 23 24 26 26 28 30 30 27 23 21 20 17 14 15 18 18 15 13 13 15 16 18 20 21 22 23 25 25 25 24 24 23 23 23 23 22
28 33 29 26 28 27 27 27 28 32 36 37 37 38 38 38 37 36 36 36 35 32 30 29 29 27 25 23 20 19 19 17 17 16 15 15 14 13 16 19 21 21 22 23 25 25 23 23 22 20 21 23 26 29 32 30 25 24 25 24 18 15 17 18 16 14 14 18 21 21 21 22 24 25 26 26 26 25 25 24 23 23 23 23 23
13 24 29 27 27 27 26 27 30 34 37 37 38 39 39 38 37 35 35 35 34 33 32 31 30 27 24 22 19 18 19 18 17 16 16 15 14 15 18 20 22 22 20 19 22 22 21 22 23 20 19 21 24 25 26 26 25 23 24 22 20 20 18 16 16 19 22 24 23 21 21 23 25 27 27 25 24 23 23 23 23 23 24 24 24
8 15 19 21 24 26 26 28 31 35 36 37 39 40 39 38 37 36 36 36 35 33 32 30 28 26 23 22 20 18 19 19 18 18 17 16 15 16 19 21 21 22 20 19 20 21 21 22 22 21 21 23 22 20 19 20 21 21 19 18 19 21 20 18 18 22 24 24 22 21 22 24 24 24 24 22 22 22 22 22 22 23 24 24 24
10 13 16 18 22 25 28 30 31 34 36 36 38 40 39 38 38 37 36 35 33 31 30 29 28 25 23 21 19 17 17 17 18 18 17 17 18 19 20 21 21 21 19 19 20 21 23 23 22 23 25 25 23 21 21 20 20 21 21 20 19 20 21 20 20 21 22 21 21 21 22 22 23 23 23 22 22 22 22 22 22 22 22 22 21
4 8 14 20 23 26 29 30 30 33 33 34 37 39 38 37 36 34 33 33 32 31 31 30 28 25 23 21 19 18 17 17 17 17 17 17 18 19 20 21 21 21 20 20 21 23 24 23 23 24 26 25 24 23 22 22 24 23 22 21 20 20 20 19 19 20 21 21 21 21 21 22 23 23 22 21 22 22 21 20 20 19 18 17 15
2 2 7 16 24 27 30 30 31 31 32 35 37 37 36 35 33 31 32 32 32 32 31 30 28 26 24 22 19 19 19 18 18 17 17 17 17 16 16 19 20 21 21 22 23 24 24 25 25 25 25 25 24 23 23 24 24 22 21 20 20 20 19 19 19 20 20 20 19 18 19 20 21 19 18 18 18 17 16 14 14 13 11 8 7
11 9 9 15 21 26 28 30 31 30 31 34 33 30 30 30 27 26 29 31 31 30 30 29 26 24 23 21 19 18 19 18 18 17 16 16 16 15 15 18 19 20 21 22 21 21 22 25 27 26 25 23 22 23 23 21 17 17 19 21 19 18 18 18 18 19 18 17 16 17 17 17 15 14 14 15 14 12 11 10 9 8 7 7 6
20 18 16 19 22 24 25 27 29 29 28 29 28 26 26 25 21 21 27 30 29 27 26 24 22 20 20 20 20 19 18 16 15 13 13 14 16 16 16 17 18 18 18 17 17 17 19 23 27 27 25 23 22 22 20 16 14 14 17 18 16 16 17 17 15 15 13 12 13 15 14 12 11 11 12 15 15 12 10 8 6 5 5 6 7
20 19 18 20 23 23 23 24 26 27 27 28 29 27 25 24 23 23 25 25 23 21 21 20 19 18 18 19 20 19 17 14 11 10 11 13 15 16 16 15 16 17 16 15 16 16 16 19 23 24 23 21 19 18 17 16 15 15 15 15 15 15 14 12 10 10 12 14 15 14 13 11 10 9 12 15 15 12 10 8 7 7 6 6 7
19 19 19 21 23 24 25 25 26 26 26 26 26 24 22 22 22 22 21 19 19 20 19 19 19 18 17 17 17 17 15 14 12 11 11 12 13 15 16 16 15 15 15 15 16 15 14 15 17 17 18 18 17 15 14 15 15 15 14 14 15 14 12 10 10 10 13 15 16 15 13 12 11 11 13 14 13 12 12 11 9 8 7 7 8
Wind_Direction
189 191 192 192 190 189 189 190 190 190 192 191 193 196 192 192 195 194 194 193 199 208 205 204 208 209 212 213 215 218 218 219 217 212 213 213 219 230 238 250 263 257 239 230 238 243 254 264 267 279 295 292 307 306 278 280 284 285 278 256 303 16 74 47 306 312 27 8 6 18 301 328 10 46 43 46 56 15 339 4 36 31 19 11 350
190 188 192 193 190 190 190 190 192 190 193 194 194 197 196 193 197 198 196 194 200 208 205 202 207 207 209 212 213 218 219 219 221 218 213 215 225 231 237 244 250 245 230 219 232 243 253 260 264 258 231 266 297 303 292 294 290 262 149 114 5 29 62 35 266 268 10 344 326 159 255 313 14 71 81 48 57 33 15 20 35 43 26 358 353
193 189 192 195 191 191 190 190 193 192 192 195 195 198 199 195 197 202 202 199 202 209 206 202 206 207 208 211 212 213 217 219 219 218 213 214 226 237 241 242 241 238 231 227 233 241 250 250 254 253 244 280 307 300 294 306 296 170 131 165 188 64 19 2 312 267 288 300 233 224 249 255 30 94 131 114 70 46 62 84 56 26 313 322 45
196 193 191 194 195 192 191 192 193 193 193 195 196 198 201 198 197 203 207 204 203 209 211 206 206 208 207 210 213 211 212 217 215 215 214 209 219 237 239 233 232 231 225 229 234 237 243 241 240 246 258 285 298 286 289 325 356 101 104 192 162 148 312 292 311 305 299 306 228 264 262 193 85 95 134 143 121 69 97 95 36 343 297 300 270
198 199 193 194 197 194 193 193 192 194 195 195 197 199 202 202 200 203 207 207 205 208 213 211 206 207 205 203 207 207 207 213 211 210 213 207 208 227 234 225 222 223 223 227 233 233 230 228 228 239 267 287 291 282 215 144 281 60 332 262 151 197 212 179 298 323 333 325 345 326 26 95 73 66 104 162 152 114 119 48 346 352 339 319 313
199 202 198 195 197 197 195 194 193 194 195 197 198 199 202 203 201 201 205 208 207 207 211 212 209 207 206 204 205 205 206 211 213 209 212 212 207 214 227 233 227 219 223 225 226 233 226 212 215 224 261 277 280 261 176 162 174 160 260 269 190 215 181 135 282 324 343 328 25 22 13 34 244 130 87 156 157 135 175 348 38 17 7 26 88
201 204 203 199 198 198 197 195 195 195 196 199 198 199 202 203 202 202 203 207 207 207 209 211 211 208 209 212 213 211 210 213 216 211 208 214 213 208 217 233 236 224 221 221 219 231 225 211 224 217 223 252 264 230 169 135 146 160 204 246 217 205 186 156 193 329 346 328 48 67 329 329 316 145 109 144 123 142 216 231 107 340 358 52 89
201 203 205 203 199 198 199 198 198 197 197 198 199 200 202 203 204 203 203 206 206 207 208 210 212 211 212 214 215 216 214 215 218 215 211 210 205 200 209 224 234 227 216 218 219 225 225 226 241 221 205 235 253 198 153 138 186 202 199 223 217 192 193 175 164 163 356 326 3 147 213 270 20 346 122 149 122 130 222 215 196 291 347 88 89
200 203 204 204 201 199 200 200 199 198 197 199 200 202 203 204 205 204 204 205 207 208 209 212 213 214 214 212 212 213 213 215 216 218 215 203 194 195 204 218 228 224 216 222 222 212 223 233 238 223 205 219 229 166 152 180 207 213 209 217 212 192 199 183 171 183 182 182 226 227 224 90 53 38 32 157 254 226 206 215 250 271 239 186 281
202 204 203 204 204 201 201 201 199 198 199 202 202 202 204 204 204 205 205 205 207 209 211 214 215 215 215 212 212 211 209 210 211 215 213 201 198 198 200 211 222 224 218 217 207 197 220 238 238 227 207 209 201 142 166 239 216 200 215 221 212 206 195 178 176 203 222 225 237 247 226 98 52 33 25 326 281 301 253 243 272 264 218 256 285
200 205 203 200 203 203 202 202 201 200 200 202 201 201 203 204 204 205 206 206 207 210 213 215 216 215 214 213 213 213 211 209 206 209 210 206 205 203 205 214 222 229 223 215 213 211 228 239 230 224 211 204 189 157 180 232 220 192 213 212 215 213 189 189 196 207 232 240 224 226 206 165 230 237 302 315 247 252 270 257 285 316 218 270 269
197 204 202 195 197 202 204 203 202 201 200 201 200 199 201 204 205 205 207 207 207 210 212 215 216 215 214 214 214 214 213 213 210 206 209 214 212 207 213 218 220 225 218 213 225 232 231 226 212 217 220 203 187 176 186 196 194 236 251 222 212 208 199 209 215 211 228 220 164 191 284 270 269 242 224 281 288 269 258 250 279 326 296 288 289
198 202 201 196 197 201 203 203 202 202 201 201 199 198 200 203 205 205 206 206 206 209 212 213 215 215 214 215 214 214 214 215 215 209 208 217 219 213 214 220 220 220 215 217 232 234 222 217 209 215 222 207 195 194 194 180 171 203 243 233 208 202 213 217 211 205 209 188 164 201 249 238 283 272 246 230 243 273 287 269 268 284 277 280 289
201 200 200 202 202 201 202 203 203 203 202 201 200 199 200 202 204 205 205 206 205 207 210 211 214 215 214 215 215 215 215 215 216 212 210 217 223 218 216 222 225 224 225 229 230 223 222 223 216 215 219 210 205 205 203 190 178 188 219 229 209 202 215 217 210 206 215 217 202 208 224 218 219 252 258 243 222 235 271 275 260 264 269 275 283
202 199 199 204 205 202 203 204 204 204 202 201 201 200 200 201 204 205 204 204 204 205 209 211 213 214 213 214 214 215 216 216 216 214 212 217 222 221 219 223 228 229 232 232 220 214 225 229 214 210 217 211 210 212 212 211 200 197 209 215 201 203 218 220 217 212 219 234 235 226 223 219 224 238 249 257 247 233 232 242 252 261 268 275 282
200 199 199 202 205 203 202 204 204 204 203 201 201 201 202 202 204 205 205 204 204 205 208 210 211 212 212 213 213 214 215 215 215 214 214 218 223 223 221 223 228 231 231 225 213 210 221 229 221 211 216 213 212 216 215 220 217 206 206 205 192 195 218 226 223 221 218 228 244 249 241 226 224 234 228 225 242 247 242 244 250 255 263 271 278
198 200 202 203 205 204 203 203 204 204 204 202 202 202 202 203 204 205 205 205 205 206 209 211 210 211 212 212 212 213 215 214 214 215 214 218 224 224 222 223 224 225 223 220 217 216 220 228 230 219 215 216 215 215 215 217 218 207 201 201 189 187 210 230 232 231 224 225 237 246 255 251 234 233 237 234 241 252 256 255 255 256 257 262 270
196 200 204 205 206 204 202 202 203 204 205 204 203 203 203 203 204 205 205 205 206 207 209 211 211 212 212 212 212 213 215 215 215 216 216 218 223 224 223 224 221 217 219 221 223 225 226 228 231 225 218 220 217 214 213 213 216 210 199 197 191 185 200 223 235 237 231 227 234 236 245 257 253 250 257 261 263 267 266 262 263 264 261 261 265
195 199 204 206 206 204 201 201 201 203 205 205 203 203 202 203 204 205 206 207 208 209 210 212 213 213 212 213 214 214 215 217 216 216 218 219 222 223 223 224 222 217 219 223 225 229 231 229 229 227 222 221 219 215 215 211 212 216 206 198 199 193 198 214 227 233 230 226 234 239 241 247 252 256 258 263 269 275 276 272 268 266 265 268 267
191 196 203 207 207 206 202 200 201 202 204 203 202 201 201 201 203 205 206 208 210 211 211 213 214 213 213 213 215 216 217 218 218 217 219 220 222 223 223 223 223 221 220 222 228 234 237 235 230 226 223 223 221 216 217 213 210 214 213 208 211 209 207 213 222 225 222 226 238 244 247 249 253 257 258 260 265 270 274 273 267 264 263 265 267
188 193 200 205 207 207 205 202 201 203 203 201 199 199 198 199 200 202 203 205 209 212 213 213 213 213 213 214 215 217 219 220 220 220 220 221 222 222 223 224 224 223 221 222 230 239 243 241 232 224 222 223 223 217 217 220 216 212 212 212 213 216 214 211 216 219 213 218 234 241 246 252 257 261 263 266 269 272 274 273 269 267 267 267 269
190 192 195 201 203 204 205 204 203 203 203 200 198 198 197 197 197 199 200 203 207 213 214 213 213 213 214 215 217 218 220 221 221 221 221 221 222 223 224 223 222 222 223 225 232 240 244 241 233 226 221 221 223 218 215 222 225 215 210 211 211 213 215 210 207 212 212 216 229 239 245 250 254 258 262 267 272 272 270 270 269 269 272 274 275
192 187 185 194 204 209 209 206 205 205 204 201 199 198 197 196 196 197 198 203 209 214 216 213 212 213 215 216 217 219 221 221 221 221 221 221 222 224 224 223 221 221 224 227 232 239 244 241 234 227 221 221 223 219 216 222 226 219 212 212 211 209 213 216 212 213 216 219 228 237 245 250 253 256 260 265 270 272 269 269 268 267 270 272 272
186 179 181 192 202 210 211 208 206 206 205 202 200 199 198 196 196 196 198 205 211 213 215 215 213 214 216 215 217 219 221 221 222 223 223 223 225 226 227 226 222 220 223 228 232 236 239 237 231 227 223 224 226 222 217 221 226 222 214 212 213 212 216 221 222 221 220 222 229 238 246 252 255 259 264 268 272 275 274 273 273 274 274 274 272
180 180 185 193 200 204 207 207 206 206 205 204 201 200 200 198 197 197 197 205 209 208 211 217 217 215 216 216 217 218 220 222 224 224 225 226 227 228 228 227 224 220 221 228 232 233 233 231 229 231 231 228 227 224 219 221 227 223 215 214 215 217 221 223 222 220 219 223 232 241 246 248 251 258 267 273 275 276 276 275 276 278 277 278 277
178 182 186 192 198 202 205 204 206 206 205 205 203 201 201 200 199 198 198 204 206 203 206 215 219 218 218 218 218 218 220 223 223 224 225 225 224 223 226 227 226 222 222 229 233 233 232 231 230 234 235 231 227 226 222 221 225 223 215 215 217 219 223 225 224 222 222 225 231 237 242 245 249 256 263 270 273 273 273 272 273 274 274 275 274
179 182 185 191 196 202 205 204 205 207 206 207 205 202 202 202 201 200 200 204 205 203 205 212 217 219 218 219 219 219 219 221 223 222 222 221 220 218 220 224 225 223 224 230 234 234 233 233 233 232 233 232 228 226 225 221 222 222 218 217 218 219 222 224 225 226 227 230 233 239 246 251 254 258 265 272 274 272 270 269 270 272 273 272 268
176 179 183 189 195 202 205 204 206 207 206 207 207 204 203 203 203 202 202 203 204 204 205 209 214 217 217 219 221 221 220 220 222 223 220 218 217 215 215 219 220 222 224 227 232 235 234 233 233 231 231 233 229 226 226 222 219 220 219 218 220 221 222 223 224 227 228 230 235 242 249 253 257 263 270 276 278 277 274 272 271 271 270 268 265
172 181 185 191 196 200 205 205 206 208 207 207 207 205 204 204 205 204 203 203 204 204 206 209 212 214 216 219 221 221 221 220 221 221 220 218 216 214 215 217 219 220 221 219 223 232 234 233 233 232 231 232 229 226 226 222 218 218 218 219 221 223 223 224 223 226 228 230 235 241 246 251 256 260 266 272 276 277 277 277 276 273 270 266 265
173 186 190 196 198 200 206 207 206 208 208 207 207 207 205 205 206 205 203 203 204 205 205 208 212 214 215 217 219 220 220 219 219 220 220 218 216 214 215 217 219 220 219 217 218 226 232 233 232 232 232 231 229 228 228 224 219 219 219 219 221 221 223 225 224 224 226 230 235 240 244 250 253 255 258 263 269 272 275 277 278 275 271 267 265
193 206 203 204 202 201 206 208 207 209 209 208 208 208 207 205 205 205 204 203 205 206 206 208 211 213 213 214 217 218 218 218 218 218 218 217 216 214 214 217 220 221 219 219 221 224 228 231 232 232 231 231 230 230 229 225 220 219 219 218 220 222 224 224 223 225 228 230 234 239 242 246 249 253 258 264 269 272 274 277 277 276 273 270 268
197 209 209 206 203 202 205 208 210 210 209 209 208 207 207 205 205 205 203 203 206 207 206 207 209 210 210 213 215 215 216 217 215 214 214 216 216 215 214 216 220 222 219 218 221 223 227 230 231 231 232 232 231 232 231 227 222 220 218 218 222 224 225 225 225 228 233 235 237 239 241 244 248 252 257 264 269 271 273 277 279 279 276 274 272
199 198 204 209 206 203 205 207 209 210 210 210 209 207 207 206 205 204 201 201 205 207 205 205 207 207 207 209 212 213 214 214 213 212 212 214 214 214 215 216 219 221 219 217 220 223 227 230 230 231 232 231 231 233 232 227 224 222 220 219 221 223 224 226 228 230 234 238 242 247 249 249 251 254 259 264 266 268 271 275 279 280 279 278 277
219 203 203 208 206 205 206 207 208 210 212 211 208 208 208 205 205 204 201 201 204 206 204 202 204 204 204 207 210 210 210 212 213 213 213 215 216 216 217 217 218 220 218 218 220 223 226 228 228 229 230 230 232 234 230 227 225 222 220 219 220 222 224 228 232 234 235 239 244 250 254 256 257 260 265 269 269 269 270 274 277 279 280 282 282
239 229 211 203 203 205 206 207 210 209 207 205 205 207 206 203 204 204 201 200 202 203 201 199 200 202 203 205 205 206 209 213 215 216 216 217 217 218 217 216 217 221 222 222 223 223 224 225 225 227 227 227 231 233 230 229 224 217 216 218 218 222 227 233 238 239 240 243 244 246 251 256 261 264 267 270 272 272 272 272 274 277 279 281 282
249 251 238 215 209 211 210 210 210 202 198 201 203 204 202 201 202 203 201 200 202 201 197 196 198 200 202 203 205 208 213 215 215 215 215 214 216 219 218 215 216 220 224 226 226 225 225 224 223 224 222 222 227 232 231 226 218 213 216 218 218 223 229 234 235 235 240 247 251 252 253 256 261 268 273 276 277 277 276 274 274 277 280 284 286
251 254 252 238 228 224 218 213 207 198 196 200 199 198 198 197 198 200 200 199 200 198 194 193 196 199 201 205 209 213 214 214 214 213 213 216 219 219 216 212 213 217 221 225 227 226 225 223 222 222 221 220 226 230 228 219 212 212 215 216 221 227 230 230 231 232 236 242 248 254 259 264 268 272 276 279 280 279 279 277 275 277 280 284 288
251 248 249 243 233 223 216 211 206 199 197 197 195 194 194 194 194 195 195 196 197 194 191 190 192 194 197 203 209 212 212 212 207 205 209 214 212 208 207 209 214 217 220 223 228 228 224 222 223 223 222 222 226 230 230 221 211 209 210 213 220 223 222 223 227 229 229 232 242 258 274 283 284 278 275 276 278 280 282 280 278 279 282 285 287
247 247 245 238 226 214 208 205 201 196 195 194 193 191 191 191 191 189 188 190 192 190 188 189 190 193 197 202 206 209 211 210 202 198 203 205 200 199 204 211 216 218 220 224 226 225 222 221 221 219 218 222 225 228 226 211 200 205 215 217 213 207 203 208 217 221 225 231 246 269 281 281 277 273 272 273 274 276 278 278 279 281 284 285 286
240 251 246 223 208 199 195 195 197 197 194 192 190 188 188 190 188 185 184 186 186 185 185 187 188 190 195 200 202 205 208 208 203 198 196 196 196 193 197 209 216 216 219 222 223 221 220 219 217 214 215 220 223 225 222 209 205 216 223 210 201 200 202 211 222 226 229 238 255 273 273 266 264 268 271 273 275 275 275 279 282 284 284 284 286
240 243 229 198 190 190 192 197 200 197 190 186 186 186 186 187 185 181 181 181 181 183 183 181 181 183 188 192 194 198 201 201 198 194 190 192 196 190 192 208 217 214 215 219 220 219 218 219 219 218 220 224 225 226 222 216 219 228 220 202 199 213 222 225 230 233 236 249 266 272 265 259 262 265 266 269 274 276 278 282 284 284 285 287 288
247 227 210 194 188 191 196 198 195 190 185 183 184 183 182 183 181 178 176 175 176 176 174 172 173 175 180 185 189 193 195 192 190 189 187 189 192 188 194 209 218 218 216 220 221 220 220 223 225 224 225 228 230 230 229 229 233 230 216 206 211 227 233 232 234 239 246 257 267 266 256 252 256 259 261 266 273 277 279 282 284 285 286 288 289
234 199 191 190 187 187 191 190 186 183 182 181 181 180 178 177 175 173 171 169 169 169 168 169 173 175 180 187 192 194 190 185 186 188 186 186 188 192 201 211 218 220 219 219 221 221 221 225 227 226 227 230 232 231 230 231 228 217 211 217 226 232 236 238 241 248 254 259 262 258 251 252 255 257 260 266 271 275 277 279 282 284 285 288 289
191 173 175 179 180 182 182 180 179 178 178 179 178 175 172 170 168 167 165 163 165 167 169 172 175 178 181 185 189 189 182 180 184 187 185 184 188 197 208 213 216 219 221 220 219 218 217 218 218 216 216 220 223 218 208 206 207 206 210 223 231 233 235 234 238 250 257 256 252 248 250 255 257 259 263 268 270 273 275 278 281 283 285 288 290
187 176 176 172 172 175 172 170 172 172 172 174 174 169 164 163 162 162 161 162 165 167 168 171 175 175 175 176 178 177 173 175 181 184 185 187 193 202 210 213 217 223 225 223 220 217 216 214 209 205 207 209 210 207 202 201 204 209 215 220 227 235 236 235 240 249 252 247 244 246 252 257 259 261 266 270 273 276 278 281 283 285 287 289 289
208 192 184 174 168 167 164 161 162 164 164 164 164 161 157 156 157 159 160 162 164 163 162 166 168 168 168 172 173 170 170 175 180 184 188 193 199 207 213 218 223 227 228 226 222 218 218 217 211 206 205 204 205 209 211 207 206 213 220 225 233 238 237 236 242 244 242 242 244 248 254 257 260 265 271 277 280 281 281 283 285 287 290 291 291
231 216 177 164 158 156 155 154 153 153 153 153 154 155 154 153 154 156 157 157 158 158 159 162 165 167 170 172 172 173 176 180 183 187 191 197 203 211 219 224 227 226 227 227 224 221 221 218 212 207 205 205 208 210 205 201 208 222 228 226 232 239 236 237 242 242 241 246 248 250 254 258 264 272 280 286 289 287 286 288 290 293 299 302 304
144 155 162 156 150 147 147 146 143 142 145 147 147 147 147 146 145 147 152 155 156 157 160 163 164 166 168 168 168 174 181 183 185 188 192 199 205 210 214 220 221 220 221 221 221 222 221 216 211 207 205 206 206 201 198 205 222 233 228 225 232 236 232 232 237 238 241 246 248 249 252 260 274 288 295 300 305 303 299 299 299 303 319 332 329
133 143 152 148 142 137 134 131 129 129 133 135 132 128 130 132 133 142 154 157 155 155 158 159 158 159 162 165 170 179 185 185 184 187 191 195 201 205 208 214 217 217 219 219 218 217 215 212 212 212 210 208 204 197 202 219 231 227 224 227 229 225 222 224 228 230 231 237 247 255 259 271 294 305 300 300 307 308 302 300 290 282 299 310 303
127 133 136 132 127 124 121 119 122 125 125 124 123 123 129 138 143 148 153 155 153 153 153 151 152 154 159 166 174 181 185 184 183 190 195 195 197 201 206 214 220 222 224 223 216 211 207 206 209 213 212 210 207 205 208 216 217 217 221 221 219 220 225 227 222 217 215 221 236 250 258 268 281 281 275 281 291 294 289 281 267 265 273 278 280
110 115 115 111 107 107 107 108 113 118 117 116 119 124 133 142 146 147 150 152 151 150 148 148 154 154 151 160 174 180 181 183 185 191 199 201 204 208 212 216 218 219 219 213 206 203 199 193 194 200 201 199 203 209 210 208 210 213 214 214 217 223 229 233 233 228 225 229 238 248 254 260 264 261 263 271 276 276 272 264 262 277 292 290 290